Regional Weather Roundup
Issued by NWS

Home | Current Version | Previous Version | Graphics & Text | Print | Product List | Glossary Off
Versions: 1 2 3 4 5 6 7 8 9 10 11 12 13 14 15 16 17 18 19 20 21 22 23 24 25 26 27 28 29 30 31 32 33 34 35 36 37 38 39 40 41 42 43 44 45 46 47 48 49 50

000
ASUS43 KDMX 070103
RWRIA

WEATHER ROUNDUP FOR IOWA
NATIONAL WEATHER SERVICE DES MOINES IA
700 PM CST SAT FEB 06 2016

NOTE: "FAIR" INDICATES FEW OR NO CLOUDS BELOW 12,000 FEET WITH NO
SIGNIFICANT WEATHER AND/OR OBSTRUCTIONS TO VISIBILITY.

* - THESE STATIONS ARE NOT NWS STATIONS...THUS NOT UNDER NWS
QUALITY CONTROL.  THEY ALSO DO NOT REPORT WEATHER SUCH
AS PRECIPITATION OR FOG.

IAZ001>003-012>014-020>022-031>034-043>046-070200-
   NORTHWEST IOWA

CITY           SKY/WX    TMP DP  RH WIND       PRES   REMARKS
CARROLL *      CLOUDY    36  30  80 SW23      29.95F WCI  24
CHEROKEE *     PTCLDY    36  28  75 S15       29.92S WCI  26
DENISON *      CLOUDY    36  28  75 SW15G22   29.95R WCI  26
LE MARS *      CLEAR     34  30  86 S12       29.93F WCI  25
ORANGE CITY *  CLEAR     32  30  93 S10       29.89F WCI  24
SHELDON *      CLEAR     32  28  86 S16       29.87F WCI  21
SIOUX CITY     PTCLDY    36  27  69 SW8       29.94S WCI  30
SPENCER        MOCLDY    33  25  72 SW13      29.89S WCI  24
STORM LAKE *   CLEAR     34  32  93 SW17      29.92R WCI  23
$$

IAZ055>058-069>071-079>083-090>094-070200-
   SOUTHWEST IOWA

CITY           SKY/WX    TMP DP  RH WIND       PRES   REMARKS
ATLANTIC *     CLOUDY    37  32  81 S14       30.00F WCI  29
AUDUBON *      CLOUDY    37  30  75 S10       29.99F WCI  30
CLARINDA *     CLEAR     37  32  81 S9        30.08F WCI  31
COUNCIL BLFS * CLEAR     39  30  70 SW17G24   29.99F WCI  30
CRESTON *      CLOUDY    36  30  80 S14       30.05F WCI  27
HARLAN  *      CLEAR     36  30  80 S16       30.01F WCI  26
LAMONI         CLOUDY    37  29  72 S10       30.07F WCI  30
RED OAK *      MOCLDY    37  32  81 S10       30.04F WCI  30
SHENANDOAH *   CLEAR     39  32  75 S12G17    30.06F WCI  32
$$

IAZ047>049-059>061-072>074-084-070200-
   CENTRAL IOWA

CITY           SKY/WX    TMP DP  RH WIND       PRES   REMARKS
AMES           CLOUDY    34  30  85 S12       30.01F WCI  25
ANKENY *       PTCLDY    36  32  87 S9        30.04F WCI  29
BOONE *        CLOUDY    36  32  87 S14       29.98F WCI  27
CHARITON *     PTCLDY    34  30  86 S9        30.07F WCI  26
DES MOINES     CLOUDY    35  30  82 S10       30.04F WCI  27
GRINNELL*      CLEAR     32  30  93 S13       30.07F WCI  22
KNOXVILLE *    CLEAR     32  30  93 S10       30.06F WCI  24
MARSHALLTOWN   CLEAR     31  28  89 S9        30.02F WCI  23
NEWTON *       CLEAR     32  32 100 S12       30.06F WCI  23
PELLA *        CLEAR     32  30  93 S7        30.10F WCI  26
$$

IAZ004>006-015-016-023>025-035-036-070200-
   NORTH CENTRAL IOWA

CITY           SKY/WX    TMP DP  RH WIND       PRES   REMARKS
ALGONA *       CLOUDY    32  28  86 S18       29.92S WCI  20
CLARION *      CLOUDY    30  28  93 S16       29.95F WCI  19
ESTHERVILLE    CLOUDY    33  27  78 S18       29.88F WCI  22
FORT DODGE *   CLOUDY    34  27  75 S20G25    29.96F WCI  22
MASON CITY     CLOUDY    30  27  88 S17       29.95F WCI  18
FOREST CITY *  PTCLDY    32  30  93 S16       29.93F WCI  21
WEBSTER CITY * CLOUDY    36  30  80 S20       29.94F WCI  25
IOWA FALLS *     N/A     32  29  90 S14       30.00F WCI  22
$$

IAZ007>011-017>019-026>030-037>042-050>054-066-070200-
   NORTHEAST IOWA

CITY           SKY/WX    TMP DP  RH WIND       PRES   REMARKS
CEDAR RAPIDS   CLEAR     30  30 100 S6        30.08F FOG     WCI  24
CHARLES CITY * CLOUDY    28  28 100 S17       29.99F FOG     WCI  16
CLINTON *      CLEAR     28  26  92 E6        30.12F WCI  22
DECORAH *      CLOUDY    28  28 100 S9G16     30.00F WCI  20
DUBUQUE        CLOUDY    26  24  92 S8        30.07F FOG     WCI  18
MONTICELLO *   CLEAR     28  27  93 SE5       30.09F WCI  23
OELWEIN *      CLOUDY    28  28 100 S15       30.04F FOG     WCI  17
WATERLOO       CLEAR     29  26  89 S12       30.03F WCI  19
$$

IAZ064-065-067-068-078-070200-
   EAST CENTRAL IOWA

CITY           SKY/WX    TMP DP  RH WIND       PRES   REMARKS
DAVENPORT      CLEAR     33  29  85 CALM      30.12F
IOWA CITY      CLEAR     33  30  88 CALM      30.12F
MT. PLEASANT * CLEAR     37  32  81 S5        30.13F WCI  34
MUSCATINE *    CLEAR     34  28  80 CALM      30.13F
QUAD CITIES    CLEAR     29  25  85 CALM      30.12F
$$

IAZ062-063-075>077-085>089-095>099-070200-
   SOUTHEAST IOWA

CITY           SKY/WX    TMP DP  RH WIND       PRES   REMARKS
BURLINGTON     CLEAR     38  30  73 SW6       30.13S WCI  33
FAIRFIELD *    CLEAR     37  28  70 S6        30.11F WCI  33
FORT MADISON * CLEAR     39  30  70 SW6       30.15S WCI  35
KEOKUK *       CLEAR     39  28  65 SW6       30.14S WCI  35
OSKALOOSA *      N/A     32  30  93 SW8       30.11F WCI  25
OTTUMWA        CLEAR     34  30  85 SW5       30.11F WCI  30
WASHINGTON *   CLEAR     34  32  93 S6        30.12F WCI  29
$$

ABBREVIATIONS USED IN REMARKS
   TC - TEMPERATURES IN CELSIUS
  WCI - WIND CHILL INDEX
   HX - HEAT INDEX
  VSB - VISIBILITY
$$




USA.gov is the U.S. government's official web portal to all federal, state and local government web resources and services.